Weather History for Gadsden, AL

Change the Weather History Date:

Wednesday, January 30, 2013

  Actual Average Record
Temperature  
Mean Temperature 53 °F -  
Max Temperature 69 °F 51 °F 75 °F (2002)
Min Temperature 37 °F 32 °F 9 °F (1934)
Degree Days  
Heating Degree Days 12    
Growing Degree Days 3 (Base 50)    
Moisture  
Dew Point 50 °F    
Average Humidity 82    
Maximum Humidity 94    
Minimum Humidity 56    
Precipitation  
Precipitation 1.74 in - - ()
Sea Level Pressure  
Sea Level Pressure 29.72 in    
Wind  
Wind Speed 10 mph (SW)    
Max Wind Speed 25 mph    
Max Gust Speed 37 mph    
Visibility 10 miles    
Events Thunderstorm    
Averages and records for this station are not official NWS values.
T = Trace of Precipitation, MM = Missing Value Source: NWS Daily Summary

Daily Weather History Graph

Daily Weather History Graph

Search for Another Location

Airport:

Trip Planner

Search our weather history database for the weather conditions in past years. The results will help you decide how hot, cold, wet, or windy it might be!

Date:

Astronomy

Jan. 30, 2013 Rise Set
Actual Time 6:42 AM CST 5:13 PM CST
Civil Twilight 6:16 AM CST 5:39 PM CST
Nautical Twilight 5:46 AM CST 6:09 PM CST
Astronomical Twilight 5:16 AM CST 6:39 PM CST
Moon 8:57 PM CST 8:22 AM CST
Length of Visible Light 11h 23m
Length of Day
10h 30m
Waning Gibbous, 87% of the Moon is Illuminated
Jan 30
Waning Gibbous
Feb 3
Last Quarter
Feb 10
New
Feb 17
First Quarter
Feb 25
Full

Hourly Weather History & Observations

Time (CST) Temp. Windchill Dew Point Humidity Pressure Visibility Wind Dir Wind Speed Gust Speed Precip Events Conditions
12:35 AM 66.2 °F - 60.8 °F 83% 29.81 in 10.0 mi SSE 11.5 mph 20.7 mph N/A   Overcast
12:55 AM 66.2 °F - 60.8 °F 83% 29.81 in 10.0 mi SSE 9.2 mph 16.1 mph N/A   Overcast
1:15 AM 66.2 °F - 62.6 °F 88% 29.81 in 8.0 mi South 8.1 mph 20.7 mph N/A   Overcast
1:35 AM 66.2 °F - 62.6 °F 88% 29.79 in 10.0 mi South 11.5 mph 16.1 mph 0.01 in   Overcast
1:55 AM 66.2 °F - 62.6 °F 88% 29.79 in 10.0 mi South 9.2 mph 18.4 mph 0.02 in   Overcast
2:15 AM 66.2 °F - 62.6 °F 88% 29.78 in 10.0 mi South 11.5 mph 17.3 mph N/A   Overcast
2:35 AM 66.2 °F - 62.6 °F 88% 29.78 in 10.0 mi South 9.2 mph 19.6 mph N/A   Overcast
2:55 AM 66.2 °F - 62.6 °F 88% 29.77 in 10.0 mi SSW 6.9 mph 16.1 mph N/A   Overcast
3:35 AM 68.0 °F - 62.6 °F 83% 29.74 in 10.0 mi SSW 11.5 mph 23.0 mph N/A   Overcast
3:55 AM 69.8 °F - 62.6 °F 78% 29.73 in 10.0 mi SSW 12.7 mph 23.0 mph N/A   Overcast
4:15 AM 69.8 °F - 62.6 °F 78% 29.72 in 10.0 mi South 12.7 mph 21.9 mph N/A   Overcast
4:35 AM 69.8 °F - 62.6 °F 78% 29.71 in 10.0 mi SSW 11.5 mph 21.9 mph N/A   Overcast
4:55 AM 68.0 °F - 62.6 °F 83% 29.69 in 10.0 mi South 11.5 mph 23.0 mph 0.01 in   Overcast
5:15 AM 68.0 °F - 64.4 °F 88% 29.68 in 10.0 mi SSW 10.4 mph 23.0 mph 0.02 in   Overcast
5:35 AM 68.0 °F - 64.4 °F 88% 29.68 in 10.0 mi SSW 9.2 mph - 0.02 in   Overcast
6:15 AM 68.0 °F - 64.4 °F 88% 29.67 in 9.0 mi SW 11.5 mph 18.4 mph N/A   Overcast
6:35 AM 68.0 °F - 64.4 °F 88% 29.67 in 10.0 mi SSW 9.2 mph 24.2 mph N/A   Mostly Cloudy
6:55 AM 68.0 °F - 64.4 °F 88% 29.67 in 10.0 mi SSW 10.4 mph 17.3 mph N/A   Overcast
7:15 AM 68.0 °F - 64.4 °F 88% 29.66 in 10.0 mi SSW 6.9 mph - N/A   Mostly Cloudy
7:35 AM 68.0 °F - 64.4 °F 88% 29.65 in 10.0 mi SW 12.7 mph 17.3 mph N/A   Overcast
7:55 AM 68.0 °F - 64.4 °F 88% 29.63 in 10.0 mi SSW 11.5 mph 19.6 mph 0.02 in   Overcast
8:15 AM 69.8 °F - 64.4 °F 83% 29.62 in 10.0 mi South 12.7 mph 19.6 mph N/A   Overcast
8:35 AM 69.8 °F - 62.6 °F 78% 29.62 in 9.0 mi South 12.7 mph 20.7 mph 0.02 in Thunderstorm Overcast
8:55 AM 60.8 °F - 55.4 °F 82% 29.66 in 5.0 mi NW 15.0 mph 18.4 mph 0.06 in Thunderstorm Thunderstorm
9:15 AM 57.2 °F - 55.4 °F 94% 29.67 in 10.0 mi WNW 5.8 mph - 0.01 in Thunderstorm Overcast
9:35 AM 57.2 °F - 55.4 °F 94% 29.67 in 2.5 mi Calm Calm - 0.60 in Thunderstorm Thunderstorm
9:55 AM 57.2 °F - 55.4 °F 94% 29.67 in 4.0 mi SSE 3.5 mph - 0.77 in Thunderstorm Thunderstorm
10:15 AM 57.2 °F - 55.4 °F 94% 29.69 in 5.0 mi South 4.6 mph - 0.10 in Thunderstorm Thunderstorm
10:35 AM 57.2 °F - 55.4 °F 94% 29.67 in 4.0 mi SSE 3.5 mph - 0.20 in Thunderstorm Overcast
10:55 AM 57.2 °F - 55.4 °F 94% 29.66 in 10.0 mi South 4.6 mph - 0.23 in   Mostly Cloudy
11:15 AM 57.2 °F - 55.4 °F 94% 29.64 in 10.0 mi WSW 5.8 mph - 0.02 in   Overcast
11:35 AM 57.2 °F - 55.4 °F 94% 29.65 in 10.0 mi WSW 5.8 mph - 0.11 in   Mostly Cloudy
11:55 AM 57.2 °F - 55.4 °F 94% 29.64 in 10.0 mi WSW 6.9 mph - 0.21 in   Overcast
12:15 PM 57.2 °F - 53.6 °F 88% 29.64 in 10.0 mi WSW 6.9 mph - 0.04 in   Overcast
12:35 PM 55.4 °F - 51.8 °F 88% 29.64 in 10.0 mi WNW 10.4 mph - 0.11 in   Overcast
12:55 PM 53.6 °F - 50.0 °F 88% 29.63 in 10.0 mi WNW 8.1 mph - 0.17 in   Overcast
1:15 PM 53.6 °F - 50.0 °F 88% 29.63 in 10.0 mi Calm Calm - 0.04 in   Overcast
1:35 PM 53.6 °F - 50.0 °F 88% 29.64 in 10.0 mi Calm Calm - 0.06 in   Overcast
1:55 PM 53.6 °F - 50.0 °F 88% 29.63 in 10.0 mi WSW 6.9 mph - 0.10 in   Overcast
2:15 PM 53.6 °F - 48.2 °F 82% 29.64 in 10.0 mi West 13.8 mph 17.3 mph 0.03 in   Overcast
2:35 PM 51.8 °F - 46.4 °F 82% 29.63 in 10.0 mi WSW 3.5 mph - 0.05 in   Mostly Cloudy
2:55 PM 51.8 °F - 48.2 °F 88% 29.66 in 10.0 mi SW 4.6 mph - 0.06 in   Overcast
3:15 PM 51.8 °F - 48.2 °F 88% 29.65 in 10.0 mi Calm Calm - 0.04 in   Overcast
3:35 PM 51.8 °F - 48.2 °F 88% 29.63 in 10.0 mi South 4.6 mph - 0.05 in   Overcast
3:55 PM 51.8 °F - 46.4 °F 82% 29.64 in 10.0 mi SW 6.9 mph - 0.06 in   Mostly Cloudy
4:15 PM 50.0 °F - 46.4 °F 87% 29.63 in 10.0 mi SW 6.9 mph - 0.01 in   Mostly Cloudy
4:35 PM 50.0 °F - 46.4 °F 87% 29.67 in 10.0 mi SW 8.1 mph - 0.01 in   Overcast
4:55 PM 48.2 °F - 44.6 °F 87% 29.64 in 10.0 mi SSW 4.6 mph - 0.01 in   Mostly Cloudy
5:15 PM 48.2 °F - 44.6 °F 87% 29.66 in 10.0 mi SSW 4.6 mph - N/A   Overcast
5:35 PM 48.2 °F - 44.6 °F 87% 29.64 in 10.0 mi SSW 4.6 mph - N/A   Mostly Cloudy
5:55 PM 48.2 °F - 46.4 °F 93% 29.65 in 10.0 mi SW 6.9 mph - N/A   Mostly Cloudy
6:15 PM 50.0 °F - 46.4 °F 87% 29.68 in 10.0 mi WSW 10.4 mph - N/A   Overcast
6:35 PM 50.0 °F - 46.4 °F 87% 29.68 in 10.0 mi WSW 11.5 mph - N/A   Overcast
6:55 PM 50.0 °F - 41.0 °F 71% 29.69 in 10.0 mi WSW 25.3 mph 35.7 mph N/A   Overcast
7:15 PM 48.2 °F - 39.2 °F 71% 29.73 in 8.0 mi West 25.3 mph 36.8 mph N/A   Mostly Cloudy
7:35 PM 46.4 °F 38.3 °F 37.4 °F 71% 29.75 in 10.0 mi West 23.0 mph 32.2 mph N/A   Overcast
7:55 PM 46.4 °F 40.7 °F 37.4 °F 71% 29.77 in 10.0 mi West 12.7 mph 21.9 mph N/A   Overcast
8:15 PM 44.6 °F 37.2 °F 35.6 °F 71% 29.78 in 10.0 mi West 17.3 mph 28.8 mph N/A   Mostly Cloudy
8:35 PM 44.6 °F 37.8 °F 35.6 °F 71% 29.79 in 10.0 mi West 15.0 mph 24.2 mph N/A   Mostly Cloudy
8:55 PM 44.6 °F 35.9 °F 32.0 °F 61% 29.82 in 10.0 mi West 23.0 mph 32.2 mph N/A   Overcast
9:15 PM 42.8 °F 36.2 °F 30.2 °F 61% 29.84 in 10.0 mi West 12.7 mph 31.1 mph N/A   Overcast
9:35 PM 42.8 °F 36.2 °F 30.2 °F 61% 29.86 in 10.0 mi West 12.7 mph 19.6 mph N/A   Overcast
9:55 PM 42.8 °F 34.5 °F 30.2 °F 61% 29.87 in 10.0 mi West 18.4 mph 24.2 mph N/A   Overcast
10:15 PM 42.8 °F 34.5 °F 30.2 °F 61% 29.89 in 10.0 mi West 18.4 mph 24.2 mph N/A   Overcast
10:35 PM 41.0 °F 32.5 °F 30.2 °F 65% 29.91 in 10.0 mi West 17.3 mph 26.5 mph N/A   Overcast
10:55 PM 41.0 °F 33.9 °F 28.4 °F 61% 29.93 in 10.0 mi NW 12.7 mph 24.2 mph N/A   Overcast
11:15 PM 39.2 °F 29.3 °F 24.8 °F 56% 29.95 in 10.0 mi West 20.7 mph 32.2 mph N/A   Scattered Clouds
11:35 PM 37.4 °F 27.5 °F 24.8 °F 60% 29.96 in 10.0 mi West 18.4 mph 24.2 mph N/A   Clear
11:55 PM 37.4 °F 28.2 °F 23.0 °F 56% 29.97 in 10.0 mi WNW 16.1 mph 28.8 mph N/A   Clear